Regional Weather Roundup
Issued by NWS

Home | Current Version | Previous Version | Text Only | Print | Product List | Glossary Off
Versions: 1 2 3 4 5 6 7 8 9 10 11 12 13 14 15 16 17 18 19 20 21 22 23 24 25 26 27 28 29 30 31 32 33 34 35 36 37 38 39 40 41 42 43 44 45 46 47 48 49 50

000
ASUS43 KBIS 281902
RWRND

NORTH DAKOTA REGIONAL WEATHER ROUNDUP
NATIONAL WEATHER SERVICE BISMARCK ND
200 PM CDT SAT MAY 28 2016

NOTE: "FAIR" INDICATES FEW OR NO CLOUDS BELOW 12,000 FEET WITH NO
SIGNIFICANT WEATHER AND/OR OBSTRUCTIONS TO VISIBILITY.


NDZ001>003-009>011-017-282000-
NORTHWEST NORTH DAKOTA

CITY           SKY/WX    TMP DP  RH WIND       PRES   REMARKS
WILLISTON      CLOUDY    67  52  58 E8        29.87F
MINOT          CLOUDY    65  53  65 NE6       29.88F
MINOT AFB      CLOUDY    63  53  71 NE7       29.88F
$$

NDZ018>021-031>035-040>046-282000-
SOUTHWEST NORTH DAKOTA

CITY           SKY/WX    TMP DP  RH WIND       PRES   REMARKS
BISMARCK       CLOUDY    67  55  65 NE7       29.87S
DICKINSON      MOSUNNY   69  46  43 E9        29.84F
GARRISON         N/A     63  53  70 E7        29.89F
HETTINGER ARPT CLOUDY    72  46  39 E5        29.87F
$$

NDZ004>008-012>016-024-026-027-054-282000-
NORTHEAST NORTH DAKOTA

CITY           SKY/WX    TMP DP  RH WIND       PRES   REMARKS
GRAND FORKS    CLOUDY    72  54  53 N8        29.82S
GRND FRKS AFB  CLOUDY    70  56  61 NE8       29.83S
DEVILS LAKE    PTSUNNY   64  57  78 NW8       29.87F
$$

NDZ022-023-025-028>030-036>039-047>053-282000-
SOUTHEAST NORTH DAKOTA

CITY           SKY/WX    TMP DP  RH WIND       PRES   REMARKS
FARGO          CLOUDY    71  57  61 N12       29.79S
JAMESTOWN      CLOUDY    66  57  72 N13       29.84F
$$





USA.gov is the U.S. government's official web portal to all federal, state and local government web resources and services.